Modesto, Modesto City-County-Sham Field, United States
Lat: 37.62N, Lon: 120.95W
Local Info
Past Weather Observations for Yesterday

NOTE: This archive is for the closest National Weather Service station to Modesto, Modesto City-County-Sham Field. Information may differ from the station used for current weather conditions.

Click here for Long-term Archive

Time Weather Temperature Dewpoint Humidity Pressure Winds Precip Visibility
23:53
Clear
77°F / 25°C 55°F / 13°C 47% 29.86 in
(1011 mb)
NNW 10.4 mph
(NNW 17 kph)
- 10SM
22:53
Clear
79°F / 26°C 55°F / 13°C 45% 29.86 in
(1011 mb)
NNW 8.1 mph
(NNW 13 kph)
- 10SM
21:53
Clear
81°F / 27°C 52°F / 11°C 37% 29.83 in
(1010 mb)
N 8.1 mph
(N 13 kph)
- 10SM
20:53
Clear
82°F / 28°C 54°F / 12°C 37% 29.83 in
(1010 mb)
NNW 13.8 mph
(NNW 22 kph)
- 10SM
19:53
Clear
86°F / 30°C 48°F / 9°C 27% 29.8 in
(1009 mb)
N 13.8 mph
(N 22 kph)
- 10SM
18:53
Clear
91°F / 33°C 48°F / 9°C 23% 29.8 in
(1009 mb)
NW 20.7 mph
(NW 33 kph)
- 10SM
17:53
Partly Cloudy
95°F / 35°C 48°F / 9°C 20% 29.77 in
(1008 mb)
NW 19.6 mph
(NW 32 kph)
- 10SM
16:53
Mostly Cloudy
100°F / 38°C 50°F / 10°C 18% 29.77 in
(1008 mb)
NW 18.4 mph
(NW 30 kph)
- 10SM
15:53
Mostly Cloudy
102°F / 39°C 50°F / 10°C 17% 29.77 in
(1008 mb)
NW 9.2 mph
(NW 15 kph)
- 10SM
14:53
Mostly Cloudy
104°F / 40°C 52°F / 11°C 17% 29.77 in
(1008 mb)
NNW 13.8 mph
(NNW 22 kph)
- 10SM
13:53
Partly Cloudy
102°F / 39°C 46°F / 8°C 15% 29.8 in
(1009 mb)
Variable 3.5 mph
(Variable 6 kph)
- 10SM
12:53
Clear
100°F / 38°C 46°F / 8°C 16% 29.83 in
(1010 mb)
SE 5.8 mph
(SE 9 kph)
- 10SM
11:53
Clear
99°F / 37°C 46°F / 8°C 17% 29.86 in
(1011 mb)
Variable 3.5 mph
(Variable 6 kph)
- 10SM
10:53
Clear
95°F / 35°C 48°F / 9°C 20% 29.89 in
(1012 mb)
Calm - 10SM
09:53
Clear
91°F / 33°C 48°F / 9°C 23% 29.89 in
(1012 mb)
Variable 3.5 mph
(Variable 6 kph)
- 10SM
08:53
Clear
86°F / 30°C 50°F / 10°C 29% 29.92 in
(1013 mb)
Variable 4.6 mph
(Variable 7 kph)
- 10SM
07:53
Clear
81°F / 27°C 54°F / 12°C 39% 29.92 in
(1013 mb)
Calm - 10SM
06:53
Clear
73°F / 23°C 54°F / 12°C 50% 29.92 in
(1013 mb)
Calm - 10SM
05:53
Clear
70°F / 21°C 54°F / 12°C 57% 29.89 in
(1012 mb)
Calm - 10SM
04:53
Clear
73°F / 23°C 52°F / 11°C 47% 29.89 in
(1012 mb)
N 4.6 mph
(N 7 kph)
- 10SM
03:53
Clear
73°F / 23°C 52°F / 11°C 47% 29.89 in
(1012 mb)
NNE 3.5 mph
(NNE 6 kph)
- 10SM
02:53
Clear
72°F / 22°C 54°F / 12°C 53% 29.89 in
(1012 mb)
NW 6.9 mph
(NW 11 kph)
- 10SM
01:53
Clear
75°F / 24°C 52°F / 11°C 44% 29.89 in
(1012 mb)
NE 6.9 mph
(NE 11 kph)
- 10SM
00:53
Clear
75°F / 24°C 50°F / 10°C 41% 29.92 in
(1013 mb)
NE 3.5 mph
(NE 6 kph)
- 10SM
Time Weather Temperature Dewpoint Humidity Pressure Winds Precip Visibility


Weather for websites

WeatherForYou.com, LLC is not responsible for any damages or problems caused by this service. Current weather conditions are obtained from the closest station including government and personal stations which may have varying degrees of accuracy. Weather forecasts are derived from the NOAA NDFD. Like all things, this site belongs to Jesus Christ... He just trusts us to maintain it. If you have any questions or comments email webmaster@weatherforyou.com

Copyright © 2015, WeatherForYou.com LLC. All rights reserved.